Weather History for KCQT - October, 2012

Change the Weather History Date:

Sunday, October 7, 2012

  Actual Average Record
Temperature  
Mean Temperature 72 °F 70 °F  
Max Temperature 80 °F 80 °F 98 °F (1971)
Min Temperature 63 °F 60 °F 43 °F (1884)
Degree Days  
Heating Degree Days 0 0  
Month to date heating degree days 0 0  
Since 1 July heating degree days 0 2  
Cooling Degree Days 7 5  
Month to date cooling degree days 62 40  
Year to date cooling degree days 1141 1118  
Growing Degree Days 22 (Base 50)    
Moisture  
Dew Point 61 °F    
Average Humidity 70    
Maximum Humidity 87    
Minimum Humidity 52    
Precipitation  
Precipitation 0.00 in 0.02 in 0.17 in (1904)
Month to date precipitation 0.00 0.12  
Year to date precipitation 4.94 11.02  
Since 1 July precipitation 0.01 0.41  
Sea Level Pressure  
Sea Level Pressure 29.89 in    
Wind  
Wind Speed 1 mph (SE)    
Max Wind Speed 8 mph    
Max Gust Speed 14 mph    
Visibility 10 miles    
Events      
T = Trace of Precipitation, MM = Missing Value Source: NWS Daily Summary

Daily Weather History Graph

Daily Weather History Graph

Search for Another Location

Airport or City:

Trip Planner

Search our weather history database for the weather conditions in past years. The results will help you decide how hot, cold, wet, or windy it might be!

Date:

Astronomy

Oct. 07, 2012 Rise Set
Actual Time 6:52 AM PDT 6:28 PM PDT
Civil Twilight 6:27 AM PDT 6:53 PM PDT
Nautical Twilight 5:58 AM PDT 7:22 PM PDT
Astronomical Twilight 5:29 AM PDT 7:51 PM PDT
Moon 11:54 PM PDT (10/7) 1:22 PM PDT (10/7)
Length of Visible Light 12h 26m
Length of Day
11h 36m
Waning Gibbous, 55% of the Moon is Illuminated
Oct 7
Waning Gibbous
Oct 8
Last Quarter
Oct 15
New
Oct 21
First Quarter
Oct 29
Full

Hourly Weather History & Observations

Time (PDT) Temp. Dew Point Humidity Pressure Visibility Wind Dir Wind Speed Gust Speed Precip Events Conditions
12:47 AM 68.0 °F 61.0 °F 78% 29.89 in 10.0 mi Calm Calm - N/A   Clear
1:47 AM 68.0 °F 62.1 °F 81% 29.89 in 10.0 mi Calm Calm - N/A   Clear
2:47 AM 66.9 °F 62.1 °F 84% 29.89 in 10.0 mi ESE 3.5 mph - N/A   Clear
3:47 AM 66.9 °F 62.1 °F 84% 29.88 in 10.0 mi Calm Calm - N/A   Partly Cloudy
4:47 AM 66.0 °F 62.1 °F 87% 29.88 in 10.0 mi Calm Calm - N/A   Clear
5:47 AM 64.9 °F 61.0 °F 87% 29.88 in 10.0 mi Calm Calm - N/A   Clear
6:47 AM 64.9 °F 61.0 °F 87% 29.90 in 10.0 mi Calm Calm - N/A   Clear
7:47 AM 64.9 °F 60.1 °F 84% 29.92 in 9.0 mi Calm Calm - N/A   Clear
8:47 AM 69.1 °F 62.1 °F 78% 29.92 in 9.0 mi Calm Calm - N/A   Clear
9:34 AM 71.6 °F 60.8 °F 69% 29.93 in 9.0 mi Calm Calm - N/A   Mostly Cloudy
9:38 AM 71.6 °F 62.6 °F 73% 29.93 in 9.0 mi ENE 3.5 mph - N/A   Scattered Clouds
9:47 AM 73.0 °F 61.0 °F 66% 29.92 in 10.0 mi SE 3.5 mph - N/A   Scattered Clouds
10:47 AM 73.9 °F 61.0 °F 64% 29.91 in 10.0 mi Calm Calm - N/A   Clear
11:47 AM 78.1 °F 61.0 °F 56% 29.90 in 10.0 mi Calm Calm - N/A   Scattered Clouds
12:47 PM 79.0 °F 59.0 °F 50% 29.89 in 10.0 mi Calm Calm - N/A   Clear
1:47 PM 78.1 °F 62.1 °F 58% 29.87 in 10.0 mi Calm Calm - N/A   Clear
2:47 PM 78.1 °F 62.1 °F 58% 29.86 in 10.0 mi Calm Calm - N/A   Clear
3:47 PM 75.9 °F 62.1 °F 62% 29.86 in 10.0 mi Calm Calm - N/A   Clear
4:47 PM 73.9 °F 60.1 °F 62% 29.86 in 10.0 mi West 5.8 mph - N/A   Clear
5:47 PM 72.0 °F 61.0 °F 68% 29.86 in 7.0 mi West 3.5 mph - N/A   Clear
6:47 PM 69.1 °F 61.0 °F 75% 29.88 in 10.0 mi Variable 3.5 mph - N/A   Clear
7:47 PM 68.0 °F 61.0 °F 78% 29.90 in 10.0 mi Calm Calm - N/A   Clear
8:47 PM 66.9 °F 61.0 °F 81% 29.91 in 10.0 mi Calm Calm - N/A   Clear
9:47 PM 66.0 °F 61.0 °F 84% 29.91 in 10.0 mi Calm Calm - N/A   Clear
10:47 PM 66.0 °F 60.1 °F 81% 29.91 in 10.0 mi Calm Calm - N/A   Clear
11:47 PM 66.0 °F 61.0 °F 84% 29.91 in 10.0 mi Calm Calm - N/A   Clear